Hamilton, OH

3:03 AM EST on December 13, 2017 (GMT -0500)
Butler County Regional

Weather History for KHAO - January, 2013

Change the Weather History Date:

Tuesday, January 8, 2013

  Actual Average (KLUK) Record (KLUK)
Temperature  
Mean Temperature 34 °F -  
Max Temperature 51 °F 34 °F 68 °F (2008)
Min Temperature 16 °F 17 °F -12 °F (1968)
Degree Days  
Heating Degree Days 32    
Moisture  
Dew Point 23 °F    
Average Humidity 76    
Maximum Humidity 92    
Minimum Humidity 46    
Precipitation  
Precipitation 0.00 in - - ()
Sea Level Pressure  
Sea Level Pressure 30.30 in    
Wind  
Wind Speed 1 mph (SSE)    
Max Wind Speed 8 mph    
Max Gust Speed -    
Visibility 8 miles    
Events      
Averages and records for this station are not official NWS values.
T = Trace of Precipitation, MM = Missing Value Source: NWS Daily Summary

Daily Weather History Graph

Daily Weather History Graph

Search for Another Location

Airport or City:

Trip Planner

Search our weather history database for the weather conditions in past years. The results will help you decide how hot, cold, wet, or windy it might be!

Date:

Astronomy

Jan. 08, 2013 Rise Set
Actual Time 7:58 AM EST 5:32 PM EST
Civil Twilight 7:28 AM EST 6:01 PM EST
Nautical Twilight 6:54 AM EST 6:35 PM EST
Astronomical Twilight 6:22 AM EST 7:07 PM EST
Moon 4:30 AM EST (1/8) 2:33 PM EST (1/8)
Length of Visible Light 10h 33m
Length of Day
9h 34m
Waning Crescent, 14% of the Moon is Illuminated
Jan 8
Waning Crescent
Jan 11
New
Jan 18
First Quarter
Jan 26
Full
Feb 3
Last Quarter

Hourly Weather History & Observations

Time (EST) Temp. Windchill Dew Point Humidity Pressure Visibility Wind Dir Wind Speed Gust Speed Precip Events Conditions
12:53 AM 17.1 °F - 14.0 °F 88% 30.28 in 4.0 mi Calm Calm - N/A   Clear
1:53 AM 18.0 °F - 15.1 °F 88% 30.27 in 5.0 mi Calm Calm - N/A   Clear
2:53 AM 16.0 °F - 12.0 °F 84% 30.30 in 5.0 mi Calm Calm - N/A   Clear
3:53 AM 17.1 °F - 14.0 °F 88% 30.30 in 5.0 mi Calm Calm - N/A   Clear
4:53 AM 17.1 °F - 12.9 °F 84% 30.30 in 7.0 mi Calm Calm - N/A   Clear
5:53 AM 16.0 °F - 12.9 °F 88% 30.31 in 5.0 mi Calm Calm - N/A   Clear
6:53 AM 18.0 °F - 15.1 °F 88% 30.32 in 6.0 mi Calm Calm - N/A   Clear
7:53 AM 21.0 °F 14.6 °F 18.0 °F 88% 30.33 in 4.0 mi East 4.6 mph - N/A   Clear
10:53 AM 41.0 °F 38.0 °F 28.0 °F 60% 30.35 in 9.0 mi Variable 4.6 mph - N/A   Clear
11:53 AM 39.0 °F - 28.9 °F 67% 30.34 in 8.0 mi Calm Calm - N/A   Clear
12:53 PM 45.0 °F - 30.0 °F 56% 30.31 in 10.0 mi Calm Calm - N/A   Clear
1:53 PM 50.0 °F - 30.9 °F 48% 30.28 in 10.0 mi SSW 5.8 mph - N/A   Clear
2:53 PM 50.0 °F - 30.9 °F 48% 30.29 in 10.0 mi SSW 8.1 mph - N/A   Clear
3:53 PM 51.1 °F - 30.9 °F 46% 30.28 in 10.0 mi SW 5.8 mph - N/A   Clear
4:53 PM 48.9 °F - 30.9 °F 50% 30.28 in 10.0 mi South 3.5 mph - N/A   Clear
5:53 PM 39.0 °F - 30.9 °F 73% 30.29 in 10.0 mi Calm Calm - N/A   Clear
6:53 PM 34.0 °F - 28.0 °F 79% 30.31 in 10.0 mi Calm Calm - N/A   Clear
7:53 PM 30.0 °F - 26.1 °F 85% 30.30 in 10.0 mi Calm Calm - N/A   Clear
8:53 PM 28.0 °F 24.2 °F 25.0 °F 88% 30.29 in 9.0 mi East 3.5 mph - N/A   Clear
9:53 PM 27.0 °F - 24.1 °F 89% 30.27 in 9.0 mi Calm Calm - N/A   Clear
10:53 PM 30.0 °F 25.2 °F 26.1 °F 85% 30.25 in 10.0 mi East 4.6 mph - N/A   Clear
11:53 PM 28.9 °F - 27.0 °F 92% 30.27 in 8.0 mi Calm Calm - N/A   Clear